Tracking 23114 objects as of 14-May-2021
HD Live streaming from Space Station
objects crossing your sky now

ATLAS 5 CENTAUR R/B

Track ATLAS 5 CENTAUR R/B now!


NORAD ID: 40295
Int'l Code: 2014-068B
Perigee: 20,605.4 km
Apogee: 21,374.4 km
Inclination: 55.8 °
Period: 750.7 minutes
Semi major axis: 27360 km
RCS: Unknown
Launch date: October 29, 2014
Source: United States (US)
Launch site: AIR FORCE EASTERN TEST RANGE (AFETR)

Note: This is a ROCKET BODY
aabbcc
Your satellite tracking list
Your tracking list is empty




NASA's NSSDC Master Catalog

Two Line Element Set (TLE):
1 40295U 14068B   21134.02032614  .00000025  00000-0  00000+0 0  9994
2 40295  55.7966 112.4156 0140536 324.8791  34.1720  1.91825804 45838
Source of the keplerian elements: AFSPC